Location: St. Louis
(38.6270°N, 90.1994°W)
Time: 23:47:07
(UTC-06:00)

Vanguard 1 - Pass Details

Date: 30 November 2021
Orbit: 652 x 3830 km, 34.2° (Epoch: 21 January)

Event Time Altitude Azimuth Distance (km) Brightness Sun altitude
Rises 07:02:14 0° 285° (WNW) 7,290 13.8 -0.3°
Reaches altitude 10° 07:08:16 10° 278° (W) 5,810 13.4 0.8°
Maximum altitude 07:21:50 35° 221° (SW) 2,904 12.4 3.0°
Drops below altitude 10° 07:29:57 10° 159° (SSE) 3,462 13.9 4.4°
Sets 07:32:35 0° 150° (SSE) 4,115 14.6 4.8°
